owner,sensor,date,latitude,longitude,air_temperature,qcFlag 
DISL,ioos:station:DISL:MHPA:1,2009-11-02T00:00:00Z,30.6671,-87.9365,16.2,1111122 
DISL,ioos:station:DISL:MHPA:1,2009-11-02T00:30:00Z,30.6671,-87.9365,15.81,1111122 
DISL,ioos:station:DISL:MHPA:1,2009-11-02T01:00:00Z,30.6671,-87.9365,15.15,1111122 
DISL,ioos:station:DISL:MHPA:1,2009-11-02T01:30:00Z,30.6671,-87.9365,14.97,1111122 
DISL,ioos:station:DISL:MHPA:1,2009-11-02T02:00:00Z,30.6671,-87.9365,14.35,1111122 
DISL,ioos:station:DISL:MHPA:1,2009-11-02T02:30:00Z,30.6671,-87.9365,13.75,1111122 
DISL,ioos:station:DISL:MHPA:1,2009-11-02T03:00:00Z,30.6671,-87.9365,13.24,1111122 
DISL,ioos:station:DISL:MHPA:1,2009-11-02T03:30:00Z,30.6671,-87.9365,13.06,1111122 
DISL,ioos:station:DISL:MHPA:1,2009-11-02T04:00:00Z,30.6671,-87.9365,12.8,1111122 
DISL,ioos:station:DISL:MHPA:1,2009-11-02T04:30:00Z,30.6671,-87.9365,12.69,1111122 
DISL,ioos:station:DISL:MHPA:1,2009-11-02T05:00:00Z,30.6671,-87.9365,12.32,1111122 
DISL,ioos:station:DISL:MHPA:1,2009-11-02T05:30:00Z,30.6671,-87.9365,11.93,1111122 
DISL,ioos:station:DISL:MHPA:1,2009-11-02T06:00:00Z,30.6671,-87.9365,11.8,1111122 
DISL,ioos:station:DISL:MHPA:1,2009-11-02T06:30:00Z,30.6671,-87.9365,11.49,1111122 
DISL,ioos:station:DISL:MHPA:1,2009-11-02T07:00:00Z,30.6671,-87.9365,11.22,1111122 
DISL,ioos:station:DISL:MHPA:1,2009-11-02T07:30:00Z,30.6671,-87.9365,11.06,1111122 
DISL,ioos:station:DISL:MHPA:1,2009-11-02T08:00:00Z,30.6671,-87.9365,10.89,1111122 
DISL,ioos:station:DISL:MHPA:1,2009-11-02T08:30:00Z,30.6671,-87.9365,10.71,1111122 
DISL,ioos:station:DISL:MHPA:1,2009-11-02T09:00:00Z,30.6671,-87.9365,10.34,1111122 
DISL,ioos:station:DISL:MHPA:1,2009-11-02T09:30:00Z,30.6671,-87.9365,9.99,1111122 
DISL,ioos:station:DISL:MHPA:1,2009-11-02T10:00:00Z,30.6671,-87.9365,9.94,1111122 
DISL,ioos:station:DISL:MHPA:1,2009-11-02T10:30:00Z,30.6671,-87.9365,9.76,1111122 
DISL,ioos:station:DISL:MHPA:1,2009-11-02T11:00:00Z,30.6671,-87.9365,9.54,1111122 
DISL,ioos:station:DISL:MHPA:1,2009-11-02T11:30:00Z,30.6671,-87.9365,9.46,1111122 
DISL,ioos:station:DISL:MHPA:1,2009-11-02T12:00:00Z,30.6671,-87.9365,9.16,1111122 
DISL,ioos:station:DISL:MHPA:1,2009-11-02T12:30:00Z,30.6671,-87.9365,9.68,1111122 
DISL,ioos:station:DISL:MHPA:1,2009-11-02T13:00:00Z,30.6671,-87.9365,10.54,1111122 
DISL,ioos:station:DISL:MHPA:1,2009-11-02T13:30:00Z,30.6671,-87.9365,10.83,1111122 
DISL,ioos:station:DISL:MHPA:1,2009-11-02T14:00:00Z,30.6671,-87.9365,11.54,1111122 
DISL,ioos:station:DISL:MHPA:1,2009-11-02T14:30:00Z,30.6671,-87.9365,12.46,1111122 
DISL,ioos:station:DISL:MHPA:1,2009-11-02T15:00:00Z,30.6671,-87.9365,13.7,1111122 
DISL,ioos:station:DISL:MHPA:1,2009-11-02T15:30:00Z,30.6671,-87.9365,14.77,1111122 
DISL,ioos:station:DISL:MHPA:1,2009-11-02T16:00:00Z,30.6671,-87.9365,16.01,1111122 
DISL,ioos:station:DISL:MHPA:1,2009-11-02T16:30:00Z,30.6671,-87.9365,16.82,1111122 
DISL,ioos:station:DISL:MHPA:1,2009-11-02T17:00:00Z,30.6671,-87.9365,18.08,1111122 
DISL,ioos:station:DISL:MHPA:1,2009-11-02T17:30:00Z,30.6671,-87.9365,18.33,1111122 
DISL,ioos:station:DISL:MHPA:1,2009-11-02T18:00:00Z,30.6671,-87.9365,18.59,1111122 
DISL,ioos:station:DISL:MHPA:1,2009-11-02T18:30:00Z,30.6671,-87.9365,19.05,1111122 
DISL,ioos:station:DISL:MHPA:1,2009-11-02T19:00:00Z,30.6671,-87.9365,19.62,1111122 
DISL,ioos:station:DISL:MHPA:1,2009-11-02T19:30:00Z,30.6671,-87.9365,19.63,1111122 
DISL,ioos:station:DISL:MHPA:1,2009-11-02T20:00:00Z,30.6671,-87.9365,19.99,1111122 
DISL,ioos:station:DISL:MHPA:1,2009-11-02T20:30:00Z,30.6671,-87.9365,20.09,1111122 
DISL,ioos:station:DISL:MHPA:1,2009-11-02T21:00:00Z,30.6671,-87.9365,20.52,1111122 
DISL,ioos:station:DISL:MHPA:1,2009-11-02T21:30:00Z,30.6671,-87.9365,20.58,1111122 
DISL,ioos:station:DISL:MHPA:1,2009-11-02T22:00:00Z,30.6671,-87.9365,20.92,1111122 
DISL,ioos:station:DISL:MHPA:1,2009-11-02T22:30:00Z,30.6671,-87.9365,20.42,1111122 
DISL,ioos:station:DISL:MHPA:1,2009-11-02T23:00:00Z,30.6671,-87.9365,18.65,1111122 
DISL,ioos:station:DISL:MHPA:1,2009-11-02T23:30:00Z,30.6671,-87.9365,17.55,1111122 
DISL,ioos:station:DISL:MHPA:1,2009-11-03T00:00:00Z,30.6671,-87.9365,16.56,1111122 
DISL,ioos:station:DISL:MHPA:1,2009-11-03T00:30:00Z,30.6671,-87.9365,15.94,1111122 
DISL,ioos:station:DISL:MHPA:1,2009-11-03T01:00:00Z,30.6671,-87.9365,15.36,1111122 
DISL,ioos:station:DISL:MHPA:1,2009-11-03T01:30:00Z,30.6671,-87.9365,15.1,1111122 
DISL,ioos:station:DISL:MHPA:1,2009-11-03T02:00:00Z,30.6671,-87.9365,14.66,1111122 
DISL,ioos:station:DISL:MHPA:1,2009-11-03T02:30:00Z,30.6671,-87.9365,14.43,1111122 
DISL,ioos:station:DISL:MHPA:1,2009-11-03T03:00:00Z,30.6671,-87.9365,14.11,1111122 
DISL,ioos:station:DISL:MHPA:1,2009-11-03T03:30:00Z,30.6671,-87.9365,13.78,1111122 
DISL,ioos:station:DISL:MHPA:1,2009-11-03T04:00:00Z,30.6671,-87.9365,13.52,1111122 
DISL,ioos:station:DISL:MHPA:1,2009-11-03T04:30:00Z,30.6671,-87.9365,13.29,1111122 
DISL,ioos:station:DISL:MHPA:1,2009-11-03T05:00:00Z,30.6671,-87.9365,13.02,1111122 
DISL,ioos:station:DISL:MHPA:1,2009-11-03T05:30:00Z,30.6671,-87.9365,12.8,1111122 
DISL,ioos:station:DISL:MHPA:1,2009-11-03T06:00:00Z,30.6671,-87.9365,12.63,1111122 
DISL,ioos:station:DISL:MHPA:1,2009-11-03T06:30:00Z,30.6671,-87.9365,12.77,1111122 
DISL,ioos:station:DISL:MHPA:1,2009-11-03T07:00:00Z,30.6671,-87.9365,12.33,1111122 
DISL,ioos:station:DISL:MHPA:1,2009-11-03T07:30:00Z,30.6671,-87.9365,12.27,1111122 
DISL,ioos:station:DISL:MHPA:1,2009-11-03T08:00:00Z,30.6671,-87.9365,11.83,1111122 
DISL,ioos:station:DISL:MHPA:1,2009-11-03T08:30:00Z,30.6671,-87.9365,11.87,1111122 
DISL,ioos:station:DISL:MHPA:1,2009-11-03T09:00:00Z,30.6671,-87.9365,11.71,1111122 
DISL,ioos:station:DISL:MHPA:1,2009-11-03T09:30:00Z,30.6671,-87.9365,11.66,1111122 
DISL,ioos:station:DISL:MHPA:1,2009-11-03T10:00:00Z,30.6671,-87.9365,11.59,1111122 
DISL,ioos:station:DISL:MHPA:1,2009-11-03T10:30:00Z,30.6671,-87.9365,11.48,1111122 
DISL,ioos:station:DISL:MHPA:1,2009-11-03T11:00:00Z,30.6671,-87.9365,11.05,1111122 
DISL,ioos:station:DISL:MHPA:1,2009-11-03T11:30:00Z,30.6671,-87.9365,11.02,1111122 
DISL,ioos:station:DISL:MHPA:1,2009-11-03T12:00:00Z,30.6671,-87.9365,11.12,1111122 
DISL,ioos:station:DISL:MHPA:1,2009-11-03T12:30:00Z,30.6671,-87.9365,11.01,1111122 
DISL,ioos:station:DISL:MHPA:1,2009-11-03T13:00:00Z,30.6671,-87.9365,12.22,1111122 
DISL,ioos:station:DISL:MHPA:1,2009-11-03T13:30:00Z,30.6671,-87.9365,12.75,1111122 
DISL,ioos:station:DISL:MHPA:1,2009-11-03T14:00:00Z,30.6671,-87.9365,13.86,1111122 
DISL,ioos:station:DISL:MHPA:1,2009-11-03T14:30:00Z,30.6671,-87.9365,15.13,1111122 
DISL,ioos:station:DISL:MHPA:1,2009-11-03T15:00:00Z,30.6671,-87.9365,16.02,1111122 
DISL,ioos:station:DISL:MHPA:1,2009-11-03T15:30:00Z,30.6671,-87.9365,17.05,1111122 
DISL,ioos:station:DISL:MHPA:1,2009-11-03T16:00:00Z,30.6671,-87.9365,17.76,1111122 
DISL,ioos:station:DISL:MHPA:1,2009-11-03T16:30:00Z,30.6671,-87.9365,19.27,1111122 
DISL,ioos:station:DISL:MHPA:1,2009-11-03T17:00:00Z,30.6671,-87.9365,20.15,1111122 
DISL,ioos:station:DISL:MHPA:1,2009-11-03T17:30:00Z,30.6671,-87.9365,21.03,1111122 
DISL,ioos:station:DISL:MHPA:1,2009-11-03T18:00:00Z,30.6671,-87.9365,21.79,1111122 
DISL,ioos:station:DISL:MHPA:1,2009-11-03T18:30:00Z,30.6671,-87.9365,22.55,1111122 
DISL,ioos:station:DISL:MHPA:1,2009-11-03T19:00:00Z,30.6671,-87.9365,23.17,1111122 
DISL,ioos:station:DISL:MHPA:1,2009-11-03T19:30:00Z,30.6671,-87.9365,23.76,1111122 
DISL,ioos:station:DISL:MHPA:1,2009-11-03T20:00:00Z,30.6671,-87.9365,24.0,1111122 
DISL,ioos:station:DISL:MHPA:1,2009-11-03T20:30:00Z,30.6671,-87.9365,23.77,1111122 
DISL,ioos:station:DISL:MHPA:1,2009-11-03T21:00:00Z,30.6671,-87.9365,23.51,1111122 
DISL,ioos:station:DISL:MHPA:1,2009-11-03T21:30:00Z,30.6671,-87.9365,23.02,1111122 
DISL,ioos:station:DISL:MHPA:1,2009-11-03T22:00:00Z,30.6671,-87.9365,22.52,1111122 
DISL,ioos:station:DISL:MHPA:1,2009-11-03T22:30:00Z,30.6671,-87.9365,21.96,1111122 
DISL,ioos:station:DISL:MHPA:1,2009-11-03T23:00:00Z,30.6671,-87.9365,20.53,1111122 
DISL,ioos:station:DISL:MHPA:1,2009-11-03T23:30:00Z,30.6671,-87.9365,19.4,1111122 
DISL,ioos:station:DISL:MHPA:1,2009-11-04T00:00:00Z,30.6671,-87.9365,18.61,1111122 
DISL,ioos:station:DISL:MHPA:1,2009-11-04T00:30:00Z,30.6671,-87.9365,17.87,1111122 
DISL,ioos:station:DISL:MHPA:1,2009-11-04T01:00:00Z,30.6671,-87.9365,17.54,1111122 
DISL,ioos:station:DISL:MHPA:1,2009-11-04T01:30:00Z,30.6671,-87.9365,17.38,1111122 
DISL,ioos:station:DISL:MHPA:1,2009-11-04T02:00:00Z,30.6671,-87.9365,16.49,1111122 
DISL,ioos:station:DISL:MHPA:1,2009-11-04T02:30:00Z,30.6671,-87.9365,15.95,1111122 
DISL,ioos:station:DISL:MHPA:1,2009-11-04T03:00:00Z,30.6671,-87.9365,15.7,1111122 
DISL,ioos:station:DISL:MHPA:1,2009-11-04T03:30:00Z,30.6671,-87.9365,15.0,1111122 
DISL,ioos:station:DISL:MHPA:1,2009-11-04T04:00:00Z,30.6671,-87.9365,15.34,1111122 
DISL,ioos:station:DISL:MHPA:1,2009-11-04T04:30:00Z,30.6671,-87.9365,14.96,1111122 
DISL,ioos:station:DISL:MHPA:1,2009-11-04T05:00:00Z,30.6671,-87.9365,14.63,1111122 
DISL,ioos:station:DISL:MHPA:1,2009-11-04T05:30:00Z,30.6671,-87.9365,14.33,1111122 
DISL,ioos:station:DISL:MHPA:1,2009-11-04T06:00:00Z,30.6671,-87.9365,13.98,1111122 
DISL,ioos:station:DISL:MHPA:1,2009-11-04T06:30:00Z,30.6671,-87.9365,13.99,1111122 
DISL,ioos:station:DISL:MHPA:1,2009-11-04T07:00:00Z,30.6671,-87.9365,13.85,1111122 
DISL,ioos:station:DISL:MHPA:1,2009-11-04T07:30:00Z,30.6671,-87.9365,13.65,1111122 
DISL,ioos:station:DISL:MHPA:1,2009-11-04T08:00:00Z,30.6671,-87.9365,13.49,1111122 
DISL,ioos:station:DISL:MHPA:1,2009-11-04T08:30:00Z,30.6671,-87.9365,13.46,1111122 
DISL,ioos:station:DISL:MHPA:1,2009-11-04T09:00:00Z,30.6671,-87.9365,13.07,1111122 
DISL,ioos:station:DISL:MHPA:1,2009-11-04T09:30:00Z,30.6671,-87.9365,13.07,1111122 
DISL,ioos:station:DISL:MHPA:1,2009-11-04T10:00:00Z,30.6671,-87.9365,12.84,1111122 
DISL,ioos:station:DISL:MHPA:1,2009-11-04T10:30:00Z,30.6671,-87.9365,12.59,1111122 
DISL,ioos:station:DISL:MHPA:1,2009-11-04T11:00:00Z,30.6671,-87.9365,12.48,1111122 
DISL,ioos:station:DISL:MHPA:1,2009-11-04T11:30:00Z,30.6671,-87.9365,12.33,1111122 
DISL,ioos:station:DISL:MHPA:1,2009-11-04T12:00:00Z,30.6671,-87.9365,12.1,1111122 
DISL,ioos:station:DISL:MHPA:1,2009-11-04T12:30:00Z,30.6671,-87.9365,11.83,1111122 
DISL,ioos:station:DISL:MHPA:1,2009-11-04T13:00:00Z,30.6671,-87.9365,13.62,1111122 
DISL,ioos:station:DISL:MHPA:1,2009-11-04T13:30:00Z,30.6671,-87.9365,14.19,1111122 
DISL,ioos:station:DISL:MHPA:1,2009-11-04T14:00:00Z,30.6671,-87.9365,15.05,1111122 
DISL,ioos:station:DISL:MHPA:1,2009-11-04T14:30:00Z,30.6671,-87.9365,16.74,1111122 
DISL,ioos:station:DISL:MHPA:1,2009-11-04T15:00:00Z,30.6671,-87.9365,18.25,1111122 
DISL,ioos:station:DISL:MHPA:1,2009-11-04T15:30:00Z,30.6671,-87.9365,19.69,1111122 
DISL,ioos:station:DISL:MHPA:1,2009-11-04T16:00:00Z,30.6671,-87.9365,20.69,1111122 
DISL,ioos:station:DISL:MHPA:1,2009-11-04T16:30:00Z,30.6671,-87.9365,21.39,1111122 
DISL,ioos:station:DISL:MHPA:1,2009-11-04T17:00:00Z,30.6671,-87.9365,22.09,1111122 
DISL,ioos:station:DISL:MHPA:1,2009-11-04T17:30:00Z,30.6671,-87.9365,22.62,1111122 
DISL,ioos:station:DISL:MHPA:1,2009-11-04T18:00:00Z,30.6671,-87.9365,22.87,1111122 
DISL,ioos:station:DISL:MHPA:1,2009-11-04T18:30:00Z,30.6671,-87.9365,23.23,1111122 
DISL,ioos:station:DISL:MHPA:1,2009-11-04T19:00:00Z,30.6671,-87.9365,23.81,1111122 
DISL,ioos:station:DISL:MHPA:1,2009-11-04T19:30:00Z,30.6671,-87.9365,24.16,1111122 
DISL,ioos:station:DISL:MHPA:1,2009-11-04T20:00:00Z,30.6671,-87.9365,24.3,1111122 
DISL,ioos:station:DISL:MHPA:1,2009-11-04T20:30:00Z,30.6671,-87.9365,24.47,1111122 
DISL,ioos:station:DISL:MHPA:1,2009-11-04T21:00:00Z,30.6671,-87.9365,24.43,1111122 
DISL,ioos:station:DISL:MHPA:1,2009-11-04T21:30:00Z,30.6671,-87.9365,24.37,1111122 
DISL,ioos:station:DISL:MHPA:1,2009-11-04T22:00:00Z,30.6671,-87.9365,24.16,1111122 
DISL,ioos:station:DISL:MHPA:1,2009-11-04T22:30:00Z,30.6671,-87.9365,23.98,1111122 
DISL,ioos:station:DISL:MHPA:1,2009-11-04T23:00:00Z,30.6671,-87.9365,21.61,1111122 
DISL,ioos:station:DISL:MHPA:1,2009-11-04T23:30:00Z,30.6671,-87.9365,20.73,1111122 
DISL,ioos:station:DISL:MHPA:1,2009-11-05T00:00:00Z,30.6671,-87.9365,20.29,1111122 
DISL,ioos:station:DISL:MHPA:1,2009-11-05T00:30:00Z,30.6671,-87.9365,19.33,1111122 
DISL,ioos:station:DISL:MHPA:1,2009-11-05T01:00:00Z,30.6671,-87.9365,19.33,1111122 
DISL,ioos:station:DISL:MHPA:1,2009-11-05T01:30:00Z,30.6671,-87.9365,18.43,1111122 
DISL,ioos:station:DISL:MHPA:1,2009-11-05T02:00:00Z,30.6671,-87.9365,18.38,1111122 
DISL,ioos:station:DISL:MHPA:1,2009-11-05T02:30:00Z,30.6671,-87.9365,17.72,1111122 
DISL,ioos:station:DISL:MHPA:1,2009-11-05T03:00:00Z,30.6671,-87.9365,16.99,1111122 
DISL,ioos:station:DISL:MHPA:1,2009-11-05T03:30:00Z,30.6671,-87.9365,16.77,1111122 
DISL,ioos:station:DISL:MHPA:1,2009-11-05T04:00:00Z,30.6671,-87.9365,16.31,1111122 
DISL,ioos:station:DISL:MHPA:1,2009-11-05T04:30:00Z,30.6671,-87.9365,16.36,1111122 
DISL,ioos:station:DISL:MHPA:1,2009-11-05T05:00:00Z,30.6671,-87.9365,15.87,1111122 
DISL,ioos:station:DISL:MHPA:1,2009-11-05T05:30:00Z,30.6671,-87.9365,15.03,1111122 
DISL,ioos:station:DISL:MHPA:1,2009-11-05T06:00:00Z,30.6671,-87.9365,14.92,1111122 
DISL,ioos:station:DISL:MHPA:1,2009-11-05T06:30:00Z,30.6671,-87.9365,14.69,1111122 
DISL,ioos:station:DISL:MHPA:1,2009-11-05T07:00:00Z,30.6671,-87.9365,14.44,1111122 
DISL,ioos:station:DISL:MHPA:1,2009-11-05T07:30:00Z,30.6671,-87.9365,14.46,1111122 
DISL,ioos:station:DISL:MHPA:1,2009-11-05T08:00:00Z,30.6671,-87.9365,14.36,1111122 
DISL,ioos:station:DISL:MHPA:1,2009-11-05T08:30:00Z,30.6671,-87.9365,14.09,1111122 
DISL,ioos:station:DISL:MHPA:1,2009-11-05T09:00:00Z,30.6671,-87.9365,13.99,1111122 
DISL,ioos:station:DISL:MHPA:1,2009-11-05T09:30:00Z,30.6671,-87.9365,13.79,1111122 
DISL,ioos:station:DISL:MHPA:1,2009-11-05T10:00:00Z,30.6671,-87.9365,13.57,1111122 
DISL,ioos:station:DISL:MHPA:1,2009-11-05T10:30:00Z,30.6671,-87.9365,13.51,1111122 
DISL,ioos:station:DISL:MHPA:1,2009-11-05T11:00:00Z,30.6671,-87.9365,13.43,1111122 
DISL,ioos:station:DISL:MHPA:1,2009-11-05T11:30:00Z,30.6671,-87.9365,13.34,1111122 
DISL,ioos:station:DISL:MHPA:1,2009-11-05T12:00:00Z,30.6671,-87.9365,13.17,1111122 
DISL,ioos:station:DISL:MHPA:1,2009-11-05T12:30:00Z,30.6671,-87.9365,13.24,1111122 
DISL,ioos:station:DISL:MHPA:1,2009-11-05T13:00:00Z,30.6671,-87.9365,14.21,1111122 
DISL,ioos:station:DISL:MHPA:1,2009-11-05T13:30:00Z,30.6671,-87.9365,14.9,1111122 
DISL,ioos:station:DISL:MHPA:1,2009-11-05T14:00:00Z,30.6671,-87.9365,15.81,1111122 
DISL,ioos:station:DISL:MHPA:1,2009-11-05T14:30:00Z,30.6671,-87.9365,17.6,1111122 
DISL,ioos:station:DISL:MHPA:1,2009-11-05T15:00:00Z,30.6671,-87.9365,19.58,1111122 
DISL,ioos:station:DISL:MHPA:1,2009-11-05T15:30:00Z,30.6671,-87.9365,19.3,1111122 
DISL,ioos:station:DISL:MHPA:1,2009-11-05T16:00:00Z,30.6671,-87.9365,20.97,1111122 
DISL,ioos:station:DISL:MHPA:1,2009-11-05T16:30:00Z,30.6671,-87.9365,21.57,1111122 
DISL,ioos:station:DISL:MHPA:1,2009-11-05T17:00:00Z,30.6671,-87.9365,21.9,1111122 
DISL,ioos:station:DISL:MHPA:1,2009-11-05T17:30:00Z,30.6671,-87.9365,21.79,1111122 
DISL,ioos:station:DISL:MHPA:1,2009-11-05T18:00:00Z,30.6671,-87.9365,22.2,1111122 
DISL,ioos:station:DISL:MHPA:1,2009-11-05T18:30:00Z,30.6671,-87.9365,22.58,1111122 
DISL,ioos:station:DISL:MHPA:1,2009-11-05T19:00:00Z,30.6671,-87.9365,22.46,1111122 
DISL,ioos:station:DISL:MHPA:1,2009-11-05T19:30:00Z,30.6671,-87.9365,22.86,1111122 
DISL,ioos:station:DISL:MHPA:1,2009-11-05T20:00:00Z,30.6671,-87.9365,23.0,1111122 
DISL,ioos:station:DISL:MHPA:1,2009-11-05T20:30:00Z,30.6671,-87.9365,23.32,1111122 
DISL,ioos:station:DISL:MHPA:1,2009-11-05T21:00:00Z,30.6671,-87.9365,23.07,1111122 
DISL,ioos:station:DISL:MHPA:1,2009-11-05T21:30:00Z,30.6671,-87.9365,23.09,1111122 
DISL,ioos:station:DISL:MHPA:1,2009-11-05T22:00:00Z,30.6671,-87.9365,22.55,1111122 
DISL,ioos:station:DISL:MHPA:1,2009-11-05T22:30:00Z,30.6671,-87.9365,21.79,1111122 
DISL,ioos:station:DISL:MHPA:1,2009-11-05T23:00:00Z,30.6671,-87.9365,19.74,1111122 
DISL,ioos:station:DISL:MHPA:1,2009-11-05T23:30:00Z,30.6671,-87.9365,18.52,1111122 
DISL,ioos:station:DISL:MHPA:1,2009-11-06T00:00:00Z,30.6671,-87.9365,17.57,1111122 
DISL,ioos:station:DISL:MHPA:1,2009-11-06T00:30:00Z,30.6671,-87.9365,17.1,1111122 
DISL,ioos:station:DISL:MHPA:1,2009-11-06T01:00:00Z,30.6671,-87.9365,16.27,1111122 
DISL,ioos:station:DISL:MHPA:1,2009-11-06T01:30:00Z,30.6671,-87.9365,15.86,1111122 
DISL,ioos:station:DISL:MHPA:1,2009-11-06T02:00:00Z,30.6671,-87.9365,15.67,1111122 
DISL,ioos:station:DISL:MHPA:1,2009-11-06T02:30:00Z,30.6671,-87.9365,15.11,1111122 
DISL,ioos:station:DISL:MHPA:1,2009-11-06T03:00:00Z,30.6671,-87.9365,14.42,1111122 
DISL,ioos:station:DISL:MHPA:1,2009-11-06T03:30:00Z,30.6671,-87.9365,13.82,1111122 
DISL,ioos:station:DISL:MHPA:1,2009-11-06T04:00:00Z,30.6671,-87.9365,13.21,1111122 
DISL,ioos:station:DISL:MHPA:1,2009-11-06T04:30:00Z,30.6671,-87.9365,12.67,1111122 
DISL,ioos:station:DISL:MHPA:1,2009-11-06T05:00:00Z,30.6671,-87.9365,12.45,1111122 
DISL,ioos:station:DISL:MHPA:1,2009-11-06T05:30:00Z,30.6671,-87.9365,11.83,1111122 
DISL,ioos:station:DISL:MHPA:1,2009-11-06T06:00:00Z,30.6671,-87.9365,11.66,1111122 
DISL,ioos:station:DISL:MHPA:1,2009-11-06T06:30:00Z,30.6671,-87.9365,11.32,1111122 
DISL,ioos:station:DISL:MHPA:1,2009-11-06T07:00:00Z,30.6671,-87.9365,10.71,1111122 
DISL,ioos:station:DISL:MHPA:1,2009-11-06T07:30:00Z,30.6671,-87.9365,10.35,1111122 
DISL,ioos:station:DISL:MHPA:1,2009-11-06T08:00:00Z,30.6671,-87.9365,9.65,1111122 
DISL,ioos:station:DISL:MHPA:1,2009-11-06T08:30:00Z,30.6671,-87.9365,9.74,1111122 
DISL,ioos:station:DISL:MHPA:1,2009-11-06T09:00:00Z,30.6671,-87.9365,9.64,1111122 
DISL,ioos:station:DISL:MHPA:1,2009-11-06T09:30:00Z,30.6671,-87.9365,9.03,1111122 
DISL,ioos:station:DISL:MHPA:1,2009-11-06T10:00:00Z,30.6671,-87.9365,8.94,1111122 
DISL,ioos:station:DISL:MHPA:1,2009-11-06T10:30:00Z,30.6671,-87.9365,8.71,1111122 
DISL,ioos:station:DISL:MHPA:1,2009-11-06T11:00:00Z,30.6671,-87.9365,8.62,1111122 
DISL,ioos:station:DISL:MHPA:1,2009-11-06T11:30:00Z,30.6671,-87.9365,8.42,1111122 
DISL,ioos:station:DISL:MHPA:1,2009-11-06T12:00:00Z,30.6671,-87.9365,9.03,1111122 
DISL,ioos:station:DISL:MHPA:1,2009-11-06T12:30:00Z,30.6671,-87.9365,9.14,1111122 
DISL,ioos:station:DISL:MHPA:1,2009-11-06T13:00:00Z,30.6671,-87.9365,11.27,1111122 
DISL,ioos:station:DISL:MHPA:1,2009-11-06T13:30:00Z,30.6671,-87.9365,12.43,1111122 
DISL,ioos:station:DISL:MHPA:1,2009-11-06T14:00:00Z,30.6671,-87.9365,13.47,1111122 
DISL,ioos:station:DISL:MHPA:1,2009-11-06T14:30:00Z,30.6671,-87.9365,14.68,1111122 
DISL,ioos:station:DISL:MHPA:1,2009-11-06T15:00:00Z,30.6671,-87.9365,16.14,1111122 
DISL,ioos:station:DISL:MHPA:1,2009-11-06T15:30:00Z,30.6671,-87.9365,17.35,1111122 
DISL,ioos:station:DISL:MHPA:1,2009-11-06T16:00:00Z,30.6671,-87.9365,18.26,1111122 
DISL,ioos:station:DISL:MHPA:1,2009-11-06T16:30:00Z,30.6671,-87.9365,18.62,1111122 
DISL,ioos:station:DISL:MHPA:1,2009-11-06T17:00:00Z,30.6671,-87.9365,19.28,1111122 
DISL,ioos:station:DISL:MHPA:1,2009-11-06T17:30:00Z,30.6671,-87.9365,19.78,1111122 
DISL,ioos:station:DISL:MHPA:1,2009-11-06T18:00:00Z,30.6671,-87.9365,20.45,1111122 
DISL,ioos:station:DISL:MHPA:1,2009-11-06T18:30:00Z,30.6671,-87.9365,20.66,1111122 
DISL,ioos:station:DISL:MHPA:1,2009-11-06T19:00:00Z,30.6671,-87.9365,21.13,1111122 
DISL,ioos:station:DISL:MHPA:1,2009-11-06T19:30:00Z,30.6671,-87.9365,19.77,1111122 
DISL,ioos:station:DISL:MHPA:1,2009-11-06T20:00:00Z,30.6671,-87.9365,19.68,1111122 
DISL,ioos:station:DISL:MHPA:1,2009-11-06T20:30:00Z,30.6671,-87.9365,20.06,1111122 
DISL,ioos:station:DISL:MHPA:1,2009-11-06T21:00:00Z,30.6671,-87.9365,20.25,1111122 
DISL,ioos:station:DISL:MHPA:1,2009-11-06T21:30:00Z,30.6671,-87.9365,20.68,1111122 
DISL,ioos:station:DISL:MHPA:1,2009-11-06T22:00:00Z,30.6671,-87.9365,21.51,1111122 
DISL,ioos:station:DISL:MHPA:1,2009-11-06T22:30:00Z,30.6671,-87.9365,21.92,1111122 
DISL,ioos:station:DISL:MHPA:1,2009-11-06T23:00:00Z,30.6671,-87.9365,18.41,1111122 
DISL,ioos:station:DISL:MHPA:1,2009-11-06T23:30:00Z,30.6671,-87.9365,17.06,1111122 
DISL,ioos:station:DISL:MHPA:1,2009-11-07T00:00:00Z,30.6671,-87.9365,16.79,1111122 
DISL,ioos:station:DISL:MHPA:1,2009-11-07T00:30:00Z,30.6671,-87.9365,16.54,1111122 
DISL,ioos:station:DISL:MHPA:1,2009-11-07T01:00:00Z,30.6671,-87.9365,15.68,1111122 
DISL,ioos:station:DISL:MHPA:1,2009-11-07T01:30:00Z,30.6671,-87.9365,14.59,1111122 
DISL,ioos:station:DISL:MHPA:1,2009-11-07T02:00:00Z,30.6671,-87.9365,15.19,1111122 
DISL,ioos:station:DISL:MHPA:1,2009-11-07T02:30:00Z,30.6671,-87.9365,14.1,1111122 
DISL,ioos:station:DISL:MHPA:1,2009-11-07T03:00:00Z,30.6671,-87.9365,12.9,1111122 
DISL,ioos:station:DISL:MHPA:1,2009-11-07T03:30:00Z,30.6671,-87.9365,13.02,1111122 
DISL,ioos:station:DISL:MHPA:1,2009-11-07T04:00:00Z,30.6671,-87.9365,12.04,1111122 
DISL,ioos:station:DISL:MHPA:1,2009-11-07T04:30:00Z,30.6671,-87.9365,12.25,1111122 
DISL,ioos:station:DISL:MHPA:1,2009-11-07T05:00:00Z,30.6671,-87.9365,11.57,1111122 
DISL,ioos:station:DISL:MHPA:1,2009-11-07T05:30:00Z,30.6671,-87.9365,11.35,1111122 
DISL,ioos:station:DISL:MHPA:1,2009-11-07T06:00:00Z,30.6671,-87.9365,12.76,1111122 
DISL,ioos:station:DISL:MHPA:1,2009-11-07T06:30:00Z,30.6671,-87.9365,12.26,1111122 
DISL,ioos:station:DISL:MHPA:1,2009-11-07T07:00:00Z,30.6671,-87.9365,12.41,1111122 
DISL,ioos:station:DISL:MHPA:1,2009-11-07T07:30:00Z,30.6671,-87.9365,12.92,1111122 
DISL,ioos:station:DISL:MHPA:1,2009-11-07T08:00:00Z,30.6671,-87.9365,13.56,1111122 
DISL,ioos:station:DISL:MHPA:1,2009-11-07T08:30:00Z,30.6671,-87.9365,13.27,1111122 
DISL,ioos:station:DISL:MHPA:1,2009-11-07T09:00:00Z,30.6671,-87.9365,12.03,1111122 
DISL,ioos:station:DISL:MHPA:1,2009-11-07T09:30:00Z,30.6671,-87.9365,12.34,1111122 
DISL,ioos:station:DISL:MHPA:1,2009-11-07T10:00:00Z,30.6671,-87.9365,11.85,1111122 
DISL,ioos:station:DISL:MHPA:1,2009-11-07T10:30:00Z,30.6671,-87.9365,11.87,1111122 
DISL,ioos:station:DISL:MHPA:1,2009-11-07T11:00:00Z,30.6671,-87.9365,11.71,1111122 
DISL,ioos:station:DISL:MHPA:1,2009-11-07T11:30:00Z,30.6671,-87.9365,13.09,1111122 
DISL,ioos:station:DISL:MHPA:1,2009-11-07T12:00:00Z,30.6671,-87.9365,14.12,1111122 
DISL,ioos:station:DISL:MHPA:1,2009-11-07T12:30:00Z,30.6671,-87.9365,15.08,1111122 
DISL,ioos:station:DISL:MHPA:1,2009-11-07T13:00:00Z,30.6671,-87.9365,14.72,1111122 
DISL,ioos:station:DISL:MHPA:1,2009-11-07T13:30:00Z,30.6671,-87.9365,15.07,1111122 
DISL,ioos:station:DISL:MHPA:1,2009-11-07T14:00:00Z,30.6671,-87.9365,16.4,1111122 
DISL,ioos:station:DISL:MHPA:1,2009-11-07T14:30:00Z,30.6671,-87.9365,17.61,1111122 
DISL,ioos:station:DISL:MHPA:1,2009-11-07T15:00:00Z,30.6671,-87.9365,18.58,1111122 
DISL,ioos:station:DISL:MHPA:1,2009-11-07T15:30:00Z,30.6671,-87.9365,19.38,1111122 
DISL,ioos:station:DISL:MHPA:1,2009-11-07T16:00:00Z,30.6671,-87.9365,20.73,1111122 
DISL,ioos:station:DISL:MHPA:1,2009-11-07T16:30:00Z,30.6671,-87.9365,21.55,1111122 
DISL,ioos:station:DISL:MHPA:1,2009-11-07T17:00:00Z,30.6671,-87.9365,22.34,1111122 
DISL,ioos:station:DISL:MHPA:1,2009-11-07T17:30:00Z,30.6671,-87.9365,22.84,1111122 
DISL,ioos:station:DISL:MHPA:1,2009-11-07T18:00:00Z,30.6671,-87.9365,23.2,1111122 
DISL,ioos:station:DISL:MHPA:1,2009-11-07T18:30:00Z,30.6671,-87.9365,23.3,1111122 
DISL,ioos:station:DISL:MHPA:1,2009-11-07T19:00:00Z,30.6671,-87.9365,23.72,1111122 
DISL,ioos:station:DISL:MHPA:1,2009-11-07T19:30:00Z,30.6671,-87.9365,23.86,1111122 
DISL,ioos:station:DISL:MHPA:1,2009-11-07T20:00:00Z,30.6671,-87.9365,23.65,1111122 
DISL,ioos:station:DISL:MHPA:1,2009-11-07T20:30:00Z,30.6671,-87.9365,23.96,1111122 
DISL,ioos:station:DISL:MHPA:1,2009-11-07T21:00:00Z,30.6671,-87.9365,24.13,1111122 
DISL,ioos:station:DISL:MHPA:1,2009-11-07T21:30:00Z,30.6671,-87.9365,22.16,1111122 
DISL,ioos:station:DISL:MHPA:1,2009-11-07T22:00:00Z,30.6671,-87.9365,22.57,1111122 
DISL,ioos:station:DISL:MHPA:1,2009-11-07T22:30:00Z,30.6671,-87.9365,21.76,1111122 
DISL,ioos:station:DISL:MHPA:1,2009-11-07T23:00:00Z,30.6671,-87.9365,20.69,1111122 
DISL,ioos:station:DISL:MHPA:1,2009-11-07T23:30:00Z,30.6671,-87.9365,19.88,1111122 